Adana Incirlik AFB, Turkey

12:54 AM +03 on April 22, 2018 (GMT +0300)
Incirlik Air Base

Weather History for LTAG - February, 2014

Change the Weather History Date:

Thursday, February 27, 2014

  Actual Average Record
Temperature  
Mean Temperature 56 °F -  
Max Temperature 65 °F 66 °F 72 °F (2013)
Min Temperature 47 °F 48 °F 32 °F (2003)
Degree Days  
Heating Degree Days 9    
Growing Degree Days 6 (Base 50)    
Moisture  
Dew Point 48 °F    
Average Humidity 79    
Maximum Humidity 100    
Minimum Humidity 37    
Precipitation  
Precipitation 0.02 in - - ()
Sea Level Pressure  
Sea Level Pressure 30.07 in    
Wind  
Wind Speed 6 mph ()    
Max Wind Speed 15 mph    
Max Gust Speed -    
Visibility 6.3 miles    
Events Rain , Thunderstorm    
Averages and records for this station are not official NWS values.
T = Trace of Precipitation, MM = Missing Value Source: Averaged Metar Reports

Daily Weather History Graph

Daily Weather History Graph

Search for Another Location

Airport or City:

Astronomy

Feb. 27, 2014 Rise Set
Actual Time 6:12 AM EET 5:30 PM EET
Civil Twilight 5:46 AM EET 5:56 PM EET
Nautical Twilight 5:16 AM EET 6:26 PM EET
Astronomical Twilight 4:46 AM EET 6:56 PM EET
Moon 4:26 AM EET (2/27) 3:32 PM EET (2/27)
Length of Visible Light 12h 10m
Length of Day
11h 17m
Waning Crescent, 5% of the Moon is Illuminated
Feb 27
Waning Crescent
Mar 1
New
Mar 8
First Quarter
Mar 16
Full
Mar 24
Last Quarter

Hourly Weather History & Observations

Time (EET) Temp. Dew Point Humidity Pressure Visibility Wind Dir Wind Speed Gust Speed Precip Events Conditions
12:20 AM 48.2 °F 48.2 °F 100% 30.06 in 6.2 mi NE 5.8 mph - N/A   Mostly Cloudy
12:50 AM 48.2 °F 48.2 °F 100% 30.06 in 6.2 mi NE 5.8 mph - N/A   Mostly Cloudy
1:20 AM 48.2 °F 46.4 °F 93% 30.06 in 6.2 mi North 4.6 mph - N/A   Mostly Cloudy
1:50 AM 48.2 °F 46.4 °F 93% 30.06 in 6.2 mi NE 8.1 mph - N/A   Mostly Cloudy
2:00 AM 48 °F 47 °F 93% 30.08 in 6 mi NE 8.1 mph - -   Partly Cloudy
2:20 AM 48.2 °F 48.2 °F 100% 30.06 in 6.2 mi NE 8.1 mph - N/A   Mostly Cloudy
2:50 AM 48.2 °F 48.2 °F 100% 30.06 in 6.2 mi NE 8.1 mph - N/A   Mostly Cloudy
3:20 AM 48.2 °F 48.2 °F 100% 30.06 in 6.2 mi NE 8.1 mph - N/A   Mostly Cloudy
3:50 AM 50.0 °F 48.2 °F 94% 30.06 in 6.2 mi NE 8.1 mph - N/A   Mostly Cloudy
4:20 AM 50.0 °F 48.2 °F 94% 30.04 in 6.2 mi NE 8.1 mph - N/A   Mostly Cloudy
4:50 AM 48.2 °F 48.2 °F 100% 30.04 in 6.2 mi NE 8.1 mph - N/A   Mostly Cloudy
5:00 AM 49 °F 48 °F 94% 30.06 in 6 mi NE 8.1 mph - -   Partly Cloudy
5:20 AM 48.2 °F 48.2 °F 100% 30.06 in 6.2 mi NE 8.1 mph - N/A   Mostly Cloudy
5:50 AM 48.2 °F 48.2 °F 100% 30.06 in 6.2 mi North 2.3 mph - N/A   Mostly Cloudy
6:20 AM 50.0 °F 48.2 °F 94% 30.06 in 6.2 mi West 2.3 mph - N/A   Mostly Cloudy
6:50 AM 50.0 °F 50.0 °F 100% 30.06 in 6.2 mi WNW 2.3 mph - N/A   Mostly Cloudy
7:20 AM 50.0 °F 50.0 °F 100% 30.06 in 6.2 mi NNW 2.3 mph - N/A   Mostly Cloudy
7:50 AM 50.0 °F 50.0 °F 100% 30.06 in 6.2 mi North 2.3 mph - N/A   Scattered Clouds
8:00 AM 51 °F 50 °F 93% 30.09 in 6 mi North 2.3 mph - -   Partly Cloudy
8:20 AM 53.6 °F 53.6 °F 100% 30.09 in 6.2 mi NE 4.6 mph - N/A   Scattered Clouds
8:50 AM 55.4 °F 53.6 °F 94% 30.09 in 6.2 mi ENE 2.3 mph - N/A   Scattered Clouds
9:20 AM 59.0 °F 51.8 °F 77% 30.09 in 6.2 mi WNW 3.5 mph - N/A   Scattered Clouds
9:50 AM 59.0 °F 51.8 °F 77% 30.09 in 6.2 mi ESE 2.3 mph - N/A   Scattered Clouds
10:20 AM 60.8 °F 51.8 °F 72% 30.09 in 6.2 mi ESE 6.9 mph - N/A   Scattered Clouds
10:50 AM 60.8 °F 51.8 °F 72% 30.09 in 6.2 mi East 3.5 mph - N/A   Scattered Clouds
11:00 AM 62 °F 42 °F 37% 30.10 in 6 mi SE 6.9 mph - -   Partly Cloudy
11:20 AM 62.6 °F 51.8 °F 68% 30.06 in 6.2 mi SSE 6.9 mph - N/A   Scattered Clouds
11:50 AM 62.6 °F 50.0 °F 63% 30.06 in 6.2 mi SE 9.2 mph - N/A   Scattered Clouds
12:20 PM 62.6 °F 50.0 °F 63% 30.04 in 6.2 mi WSW 11.5 mph - N/A   Scattered Clouds
12:50 PM 64.4 °F 50.0 °F 59% 30.04 in 6.2 mi South 8.1 mph - N/A   Scattered Clouds
1:20 PM 64.4 °F 50.0 °F 59% 30.04 in 6.2 mi SSW 10.4 mph - N/A   Scattered Clouds
1:50 PM 62.6 °F 48.2 °F 59% 30.04 in 6.2 mi SW 10.4 mph - N/A   Scattered Clouds
2:00 PM 63 °F 49 °F 49% 30.03 in 12 mi SW 10.4 mph - -   Partly Cloudy
2:20 PM 64.4 °F 48.2 °F 56% 30.04 in 6.2 mi SSW 9.2 mph - N/A   Scattered Clouds
2:50 PM 64.4 °F 46.4 °F 52% 30.04 in 6.2 mi SSE 10.4 mph - N/A   Scattered Clouds
3:20 PM 64.4 °F 46.4 °F 52% 30.04 in 6.2 mi South 9.2 mph - N/A   Scattered Clouds
3:50 PM 62.6 °F 46.4 °F 55% 30.04 in 6.2 mi SW 11.5 mph - N/A   Scattered Clouds
4:20 PM 62.6 °F 46.4 °F 55% 30.04 in 6.2 mi SW 11.5 mph - N/A   Scattered Clouds
4:50 PM 62.6 °F 48.2 °F 59% 30.04 in 6.2 mi SSW 12.7 mph - N/A   Scattered Clouds
5:00 PM 62 °F 47 °F 48% 30.04 in 6 mi SSW 12.7 mph - -   Mostly Cloudy
5:20 PM 60.8 °F 48.2 °F 63% 30.04 in 6.2 mi ENE 6.9 mph - N/A Thunderstorm Thunderstorm
5:50 PM 57.2 °F 42.8 °F 59% 30.06 in 6.2 mi NNE 15.0 mph - N/A Thunderstorm Thunderstorm
6:20 PM 55.4 °F 44.6 °F 67% 30.06 in 6.2 mi South 6.9 mph - N/A   Mostly Cloudy
6:50 PM 55.4 °F 41.0 °F 58% 30.06 in 6.2 mi NNE 8.1 mph - N/A   Mostly Cloudy
7:20 PM 53.6 °F 44.6 °F 72% 30.09 in 6.2 mi North 5.8 mph - N/A   Mostly Cloudy
7:50 PM 55.4 °F 46.4 °F 72% 30.09 in 6.2 mi NW 6.9 mph - N/A   Mostly Cloudy
8:00 PM 54 °F 46 °F 68% 30.12 in 6 mi NW 6.9 mph - -   Partly Cloudy
8:09 PM 55.4 °F 46.4 °F 72% 30.09 in 6.2 mi NNW 10.4 mph - N/A Rain Light Rain Showers
8:20 PM 53.6 °F 46.4 °F 77% 30.09 in 6.2 mi North 6.9 mph - N/A Rain Light Rain Showers
8:50 PM 53.6 °F 44.6 °F 72% 30.09 in 6.2 mi ENE 2.3 mph - N/A Rain Light Rain Showers
9:20 PM 55.4 °F 46.4 °F 72% 30.09 in 6.2 mi North 8.1 mph - N/A   Mostly Cloudy
9:50 PM 51.8 °F 50.0 °F 94% 30.09 in 6.2 mi North 3.5 mph - N/A   Mostly Cloudy
10:20 PM 51.8 °F 50.0 °F 94% 30.09 in 6.2 mi WNW 3.5 mph - N/A   Mostly Cloudy
10:50 PM 50.0 °F 50.0 °F 100% 30.09 in 6.2 mi North 5.8 mph - N/A   Scattered Clouds
11:00 PM 49 °F 49 °F 100% 30.11 in 6 mi North 5.8 mph - -   Partly Cloudy
11:20 PM 48.2 °F 48.2 °F 100% 30.12 in 6.2 mi NNE 4.6 mph - N/A   Scattered Clouds
11:50 PM 48.2 °F 48.2 °F 100% 30.12 in 6.2 mi NE 5.8 mph - N/A   Scattered Clouds